DECAYED

STARLINK-1604, 46122 (Decayed)

Orbit data source: Space-Track

STARLINK-1604, 46122 was a payload satellite owned by SpaceX/Seattle (US) in LEO that was launched on Tue, 18 Aug 2020 UTC via an FALCON 9 launch vehicle from the Air Force Eastern Test Range (AFETR). Payload-class satellites include a variety of spacecraft equipped with specific instruments for various scientific and technological missions. These include communications satellites like Starlink; space stations such as the ISS; scientific satellites like the Hubble; Earth observation satellites from companies like Planet Labs, Umbra, and HawkEye 360; GPS; miniature CubeSats for education and research; and military/defense satellites.

Not visible in the next 10 days
Identifier
46122, 2020-057F
Orbit
Decayed
Country
Flag of USUS
Related business
Manufacturer
SpaceX/Seattle
Mission
Decayed Commercial Communications
Bus & Motor
STARLINK, Unknown motor
Mass
260 kg wet, ~248 kg dry
Launch date (UTC)
2020-08-18 (6 years ago)
Launch vehicle
FALCON 9
Launch site
Air Force Eastern Test Range (AFETR)
Object type
Payload
Rocket body
Debris
Shape & HBR
Box + 1 Pan, 10.1 m
Radar Cross Section
13.562 m², Large (>1 m²)

Expand to show TLE details & history
Last TLE update: 1 year ago

TLE from 1 year ago
0 STARLINK-1604
1 46122U 20057F   25060.29067889  .30557303  12656-4  38198-3 0  9993
2 46122  53.0243 108.2409 0004352 296.3193 113.7709 16.49431142251545
Epoch: 2025-03-01T06:58Z
TLE epoch observation values (Epoch: 2025-03-01T06:58:34.656Z)
Latitude
37.95052°
Longitude
-120.02555°
Altitude
145.11 km
Speed
7.824 km/s
True Right ascension
09h 35m 49s
True Declination
37° 46' 06"
Sunlit
Object was in full shadow at epoch
Visualization orbit readout
Latitude
Unknown
Longitude
Unknown
Altitude
Unknown
Speed
Unknown
Apparent Right ascension
Unknown
Apparent Declination
Unknown
Sunlit
N/A
Visualization observer readout
Local Sidereal Time
14:22:46
Azimuth
Unknown
Elevation
Unknown
Doppler factor
Unknown
Orbital elements
Apogee altitude
143.963 km
Perigee altitude
138.289 km
Semi-major axis
6,519.263 km
Eccentricity
0.00044
Inclination
53.0243°
RAAN
108.2409°
Arg. of periapsis
296.3193°
True anomaly
113.81653°
Mean anomaly
113.7709°
Eccentric anomaly
113.79372°
Mean motion
4.1233 °/min
Orbital period
87.31 mins
BSTAR
0.00038198
Loading maneuver chart data...
Computing Atmospheric mass density...

Documentation

Showing up to 5 results
|